Change the Weather History Date:

Saturday, December 7, 2013

  Actual Average Record
Temperature  
Mean Temperature 43 °F -  
Max Temperature 49 °F 57 °F 68 °F (1988)
Min Temperature 37 °F 40 °F 27 °F (1959)
Degree Days  
Heating Degree Days 22 16  
Month to date heating degree days 143 109  
Since 1 July heating degree days 536 470  
Cooling Degree Days 0 0  
Month to date cooling degree days 0 0  
Year to date cooling degree days 1718 1699  
Moisture  
Dew Point 32 °F    
Average Humidity 67    
Maximum Humidity 92    
Minimum Humidity 42    
Precipitation  
Precipitation 0.23 in 0.06 in 0.59 in (1950)
Month to date precipitation 0.25 0.38  
Year to date precipitation 4.70 11.45  
Since 1 July precipitation 1.49 2.70  
Snow  
Snow 0.00 in - 0.00 in (2001)
Month to date snowfall 0.0  
Since 1 July snowfall 0.0  
Snow Depth -    
Sea Level Pressure  
Sea Level Pressure 30.06 in    
Wind  
Wind Speed 9 mph (SSE)    
Max Wind Speed 76 mph    
Max Gust Speed 45 mph    
Visibility 7 miles    
Events Rain    
T = Trace of Precipitation, MM = Missing Value Source: NWS Daily Summary

Daily Weather History Graph

Daily Weather History Graph

Search for Another Location

Airport or City:

Trip Planner

Search our weather history database for the weather conditions in past years. The results will help you decide how hot, cold, wet, or windy it might be!

Date:

Astronomy

Dec. 07, 2013 Rise Set
Actual Time 7:05 AM PST 4:45 PM PST
Civil Twilight 6:36 AM PST 5:14 PM PST
Nautical Twilight 6:03 AM PST 5:46 PM PST
Astronomical Twilight 5:32 AM PST 6:18 PM PST
Moon 10:58 AM PST (12/7) 10:28 PM PST (12/7)
Length of Visible Light 10h 37m
Length of Day
9h 39m
Waxing Crescent, 30% of the Moon is Illuminated
Dec 7
Waxing Crescent
Dec 9
First Quarter
Dec 17
Full
Dec 25
Last Quarter
Jan 1
New

Hourly Weather History & Observations

Time (PST) Temp. Windchill Dew Point Humidity Pressure Visibility Wind Dir Wind Speed Gust Speed Precip Events Conditions
12:53 AM 41.0 °F 35.2 °F 33.1 °F 73% 29.95 in 5.0 mi ESE 9.2 mph - 0.05 in Rain Rain
1:14 AM 39.2 °F 37.0 °F 33.8 °F 81% 29.96 in 4.0 mi Variable 3.5 mph - 0.08 in Rain Rain
1:40 AM 39.2 °F 32.5 °F 33.8 °F 81% 29.96 in 4.0 mi SSE 10.4 mph 16.1 mph 0.15 in Rain Light Rain
1:53 AM 39.0 °F 29.9 °F 34.0 °F 82% 29.95 in 5.0 mi SE 17.3 mph 21.9 mph 0.15 in Rain Light Rain
2:53 AM 39.0 °F 31.4 °F 35.1 °F 86% 29.96 in 5.0 mi ESE 12.7 mph - 0.03 in Rain Light Rain
3:24 AM 39.2 °F 30.8 °F 35.6 °F 87% 29.96 in 6.0 mi ESE 15.0 mph - 0.00 in   Overcast
3:32 AM 39.2 °F 32.5 °F 35.6 °F 87% 29.97 in 6.0 mi ESE 10.4 mph - 0.00 in   Overcast
3:53 AM 39.0 °F 31.4 °F 36.0 °F 89% 29.98 in 7.0 mi ESE 12.7 mph 16.1 mph 0.00 in   Overcast
4:38 AM 37.4 °F 31.4 °F 35.6 °F 93% 29.98 in 6.0 mi ESE 8.1 mph - N/A   Overcast
4:53 AM 37.9 °F 34.4 °F 36.0 °F 93% 29.99 in 6.0 mi SSE 4.6 mph - N/A   Mostly Cloudy
5:12 AM 37.4 °F 34.9 °F 35.6 °F 93% 29.99 in 6.0 mi SSE 3.5 mph - N/A   Overcast
5:25 AM 37.4 °F 32.1 °F 35.6 °F 93% 29.99 in 6.0 mi SE 6.9 mph - N/A   Overcast
5:41 AM 37.4 °F - 35.6 °F 93% 30.00 in 6.0 mi Calm Calm - N/A   Overcast
5:53 AM 37.9 °F 32.1 °F 35.1 °F 89% 30.01 in 6.0 mi South 8.1 mph - N/A   Overcast
6:24 AM 37.4 °F 33.8 °F 35.6 °F 93% 30.02 in 5.0 mi South 4.6 mph - N/A   Mostly Cloudy
6:42 AM 37.4 °F 33.8 °F 35.6 °F 93% 30.02 in 5.0 mi SSE 4.6 mph - N/A   Partly Cloudy
6:51 AM 37.4 °F 34.9 °F 35.6 °F 93% 30.02 in 5.0 mi SE 3.5 mph - N/A   Scattered Clouds
6:53 AM 37.0 °F 34.5 °F 35.1 °F 93% 30.03 in 5.0 mi SSE 3.5 mph - N/A   Scattered Clouds
7:14 AM 37.4 °F 32.8 °F 35.6 °F 93% 30.03 in 5.0 mi SE 5.8 mph - N/A   Mostly Cloudy
7:19 AM 37.4 °F 32.8 °F 35.6 °F 93% 30.03 in 4.0 mi SSE 5.8 mph - N/A   Scattered Clouds
7:53 AM 37.0 °F 31.6 °F 35.1 °F 93% 30.06 in 3.0 mi SE 6.9 mph - N/A   Clear
8:53 AM 39.0 °F - 36.0 °F 89% 30.08 in 4.0 mi North - - N/A   Clear
9:53 AM 43.0 °F 40.3 °F 34.0 °F 71% 30.10 in 8.0 mi WSW 4.6 mph - N/A   Clear
10:53 AM 46.9 °F - 30.0 °F 52% 30.09 in 10.0 mi West 16.1 mph - N/A   Partly Cloudy
11:53 AM 46.0 °F 41.4 °F 26.1 °F 46% 30.08 in 10.0 mi WNW 9.2 mph 19.6 mph N/A   Partly Cloudy
12:53 PM 48.9 °F - 27.0 °F 43% 30.08 in 10.0 mi NW 10.4 mph 18.4 mph N/A   Mostly Cloudy
1:53 PM 46.9 °F - 26.1 °F 44% 30.09 in 10.0 mi East 76.0 mph - N/A   Mostly Cloudy
2:53 PM 46.9 °F - 25.0 °F 42% 30.10 in 10.0 mi SW 15.0 mph 44.9 mph N/A   Mostly Cloudy
3:53 PM 46.9 °F - 23.0 °F 39% 30.13 in 10.0 mi NW 10.4 mph - N/A   Scattered Clouds
4:53 PM 45.0 °F 41.8 °F 23.0 °F 42% 30.16 in 10.0 mi WNW 5.8 mph - N/A   Mostly Cloudy
5:53 PM 39.9 °F - 26.1 °F 58% 30.17 in 10.0 mi Calm Calm - N/A   Mostly Cloudy
6:53 PM 39.9 °F 37.8 °F 30.0 °F 68% 30.18 in 10.0 mi NE 3.5 mph - N/A   Mostly Cloudy
7:53 PM 37.9 °F - 30.9 °F 76% 30.18 in 10.0 mi Calm Calm - N/A   Scattered Clouds
8:53 PM 36.0 °F - 30.9 °F 82% 30.20 in 9.0 mi Calm Calm - N/A   Clear
9:53 PM 36.0 °F 33.3 °F 30.9 °F 82% 30.21 in 9.0 mi NW 3.5 mph - N/A   Clear
10:53 PM 34.0 °F - 30.0 °F 85% 30.22 in 7.0 mi Calm Calm - N/A   Clear
11:53 PM 33.1 °F 30.0 °F 30.0 °F 89% 30.24 in 7.0 mi NNW 3.5 mph - N/A   Clear